This demonstration page uses our WeatherBlox Daily Observations layout. Learn more.

Left ArrowRight Arrow

Hourly Observations for June 29, 2018

Temp ( °F °C ) Dew Point ( °F °C ) Humidity (%) Winds ( mph kmh ) Pressure ( in mb ) Visibility ( mi km ) Precip ( " mm )
12:54 am 00:54 Clear 84 28.9 73 22.8 70 70 S 18 30 29.69 1005 10 16 0.00 0.00
1:54 am 01:54 Clear 84 28.9 73 22.8 70 70 S 18 30 29.69 1005 10 16 0.00 0.00
2:54 am 02:54 Clear 83 28.3 73 22.8 72 72 S 21 33 29.69 1006 10 16 0.00 0.00
3:54 am 03:54 Clear 82 27.8 72 22.2 72 72 S 20 31 29.69 1006 10 16 0.00 0.00
4:54 am 04:54 Clear 81 27.2 71 21.7 72 72 S 20 31 29.69 1006 10 16 0.00 0.00
5:54 am 05:54 Clear 81 27.2 69 20.6 67 67 S 16 26 29.70 1006 10 16 0.00 0.00
6:54 am 06:54 Sunny 80 26.7 68 20 67 67 S 15 24 29.71 1006 10 16 0.00 0.00
7:54 am 07:54 Sunny 82 27.8 68 20 63 63 S 18 30 29.71 1006 10 16 0.00 0.00
8:54 am 08:54 Sunny 84 28.9 68 20 59 59 S 21 33 29.71 1006 10 16 0.00 0.00
9:54 am 09:54 Sunny 87 30.6 69 20.6 55 55 S 18 30 29.70 1006 10 16 0.00 0.00
10:54 am 10:54 Sunny 89 31.7 70 21.1 53 53 S 21 33 29.70 1006 10 16 0.00 0.00
11:54 am 11:54 Sunny 91 32.8 70 21.1 50 50 S 21 33 29.70 1006 10 16 0.00 0.00
12:54 pm 12:54 Sunny 93 33.9 70 21.1 47 47 S 21 33 29.68 1005 10 16 0.00 0.00
1:54 pm 13:54 Sunny 97 36.1 71 21.7 43 43 S 24 39 29.66 1004 10 16 0.00 0.00
2:54 pm 14:54 Sunny 98 36.7 71 21.7 42 42 S 20 31 29.64 1004 10 16 0.00 0.00
3:54 pm 15:54 Sunny 98 36.7 68 20 38 38 S 25 41 29.64 1004 10 16 0.00 0.00
4:54 pm 16:54 Sunny 97 36.1 66 18.9 36 36 S 23 37 29.63 1004 10 16 0.00 0.00
5:54 pm 17:54 Sunny 97 36.1 67 19.4 37 37 S 18 30 29.63 1003 10 16 0.00 0.00
6:54 pm 18:54 Sunny 92 33.3 68 20 46 46 S 15 24 29.65 1004 10 16 0.00 0.00
7:54 pm 19:54 Sunny 91 32.8 68 20 47 47 S 15 24 29.65 1004 10 16 0.00 0.00
8:54 pm 20:54 Sunny 88 31.1 68 20 52 52 S 15 24 29.67 1005 10 16 0.00 0.00
9:54 pm 21:54 Clear 85 29.4 69 20.6 59 59 S 15 24 29.69 1005 10 16 0.00 0.00
10:54 pm 22:54 Clear 85 29.4 70 21.1 61 61 S 15 24 29.70 1006 10 16 0.00 0.00
11:54 pm 23:54 Clear 84 28.9 71 21.7 65 65 S 17 28 29.72 1007 10 16 0.00 0.00

Powered by AerisWeather